Weather History for St. Joseph, MO

Change the Weather History Date:

Thursday, March 21, 2013

  Actual Average Record
Temperature  
Mean Temperature 27 °F 45 °F  
Max Temperature 34 °F 57 °F 88 °F (1916)
Min Temperature 19 °F 33 °F 7 °F (1951)
Degree Days  
Heating Degree Days 38 20  
Month to date heating degree days 604 508  
Since 1 July heating degree days 4708 4816  
Cooling Degree Days 0 0  
Month to date cooling degree days 0 0  
Year to date cooling degree days 0 0  
Moisture  
Dew Point 13 °F    
Average Humidity 52    
Maximum Humidity 62    
Minimum Humidity 41    
Precipitation  
Precipitation 0.00 in 0.08 in 1.31 in (1949)
Month to date precipitation 1.22 1.39  
Year to date precipitation 2.23 2.88  
Sea Level Pressure  
Sea Level Pressure 30.05 in    
Wind  
Wind Speed 7 mph (ESE)    
Max Wind Speed 14 mph    
Max Gust Speed 18 mph    
Visibility 10 miles    
Events      
T = Trace of Precipitation, MM = Missing Value Source: NWS Daily Summary

Daily Weather History Graph

Daily Weather History Graph

Search for Another Location

Airport:

Trip Planner

Search our weather history database for the weather conditions in past years. The results will help you decide how hot, cold, wet, or windy it might be!

Date:

Astronomy

Mar. 21, 2013 Rise Set
Actual Time 7:21 AM CDT 7:32 PM CDT
Civil Twilight 6:54 AM CDT 7:59 PM CDT
Nautical Twilight 6:22 AM CDT 8:31 PM CDT
Astronomical Twilight 5:50 AM CDT 9:03 PM CDT
Moon 2:04 PM CDT 3:42 AM CDT
Length of Visible Light 13h 05m
Length of Day
12h 11m
Waxing Gibbous, 69% of the Moon is Illuminated
Mar 21
Waxing Gibbous
Mar 27
Full
Apr 2
Last Quarter
Apr 10
New
Apr 18
First Quarter

Hourly Weather History & Observations

Time (CDT) Temp. Windchill Dew Point Humidity Pressure Visibility Wind Dir Wind Speed Gust Speed Precip Events Conditions
1:53 AM 23.0 °F 18.4 °F 8.1 °F 53% 30.14 in 10.0 mi East 3.5 mph - N/A   Clear
2:53 AM 23.0 °F - 10.9 °F 60% 30.14 in 10.0 mi Calm Calm - N/A   Clear
3:53 AM 24.1 °F - 10.0 °F 55% 30.12 in 10.0 mi Calm Calm - N/A   Clear
4:53 AM 25.0 °F 17.1 °F 9.0 °F 51% 30.10 in 10.0 mi East 6.9 mph - N/A   Mostly Cloudy
5:53 AM 24.1 °F 13.7 °F 9.0 °F 53% 30.09 in 10.0 mi East 10.4 mph - N/A   Overcast
6:53 AM 24.1 °F 12.0 °F 10.0 °F 55% 30.10 in 10.0 mi ESE 13.8 mph 18.4 mph N/A   Overcast
7:53 AM 24.1 °F 16.0 °F 10.0 °F 55% 30.13 in 10.0 mi ESE 6.9 mph - N/A   Overcast
8:53 AM 25.0 °F 14.8 °F 10.9 °F 55% 30.11 in 10.0 mi ESE 10.4 mph - N/A   Overcast
9:53 AM 26.1 °F 16.2 °F 10.9 °F 53% 30.09 in 10.0 mi ESE 10.4 mph - N/A   Overcast
10:53 AM 27.0 °F 18.7 °F 10.9 °F 51% 30.08 in 10.0 mi ESE 8.1 mph - N/A   Overcast
11:53 AM 28.0 °F 18.1 °F 10.9 °F 49% 30.06 in 10.0 mi ESE 11.5 mph - N/A   Overcast
12:53 PM 30.0 °F 21.1 °F 12.0 °F 47% 30.04 in 10.0 mi ESE 10.4 mph - N/A   Overcast
1:53 PM 32.0 °F 23.6 °F 12.9 °F 45% 30.00 in 10.0 mi East 10.4 mph - N/A   Overcast
3:53 PM 33.1 °F 26.9 °F 14.0 °F 46% 29.96 in 10.0 mi SE 6.9 mph - N/A   Overcast
4:53 PM 33.1 °F 25.5 °F 15.1 °F 48% 29.96 in 10.0 mi East 9.2 mph - N/A   Overcast
5:53 PM 30.9 °F 24.3 °F 18.0 °F 59% 29.96 in 10.0 mi SE 6.9 mph - N/A   Overcast
6:53 PM 30.9 °F 24.3 °F 17.1 °F 57% 29.97 in 10.0 mi SSE 6.9 mph - N/A   Overcast
7:53 PM 30.9 °F 25.2 °F 17.1 °F 57% 29.99 in 10.0 mi SSE 5.8 mph - N/A   Overcast
8:53 PM 30.0 °F 25.2 °F 18.0 °F 61% 29.99 in 10.0 mi SSE 4.6 mph - N/A   Overcast
9:53 PM 30.9 °F 27.5 °F 18.0 °F 59% 30.01 in 10.0 mi SE 3.5 mph - N/A   Overcast
10:53 PM 30.9 °F 27.5 °F 17.1 °F 57% 30.01 in 10.0 mi East 3.5 mph - N/A   Overcast
11:53 PM 30.9 °F 26.2 °F 17.1 °F 57% 30.01 in 10.0 mi ENE 4.6 mph - N/A   Overcast